Overview Statistics Trail Chart Weather Telemetry Raw packets
 

This is the latest recevied weather packets stored in our database for station/object 4S6DRJ-13. If no packets are shown the sender has not sent any weather packets the latest 10 day(s).

<< 203 204 205 206 207 208 209 >>
Time Temp. Humidity Pressure Rain* Wind** Luminosity Snow
1788164387 30.56° C 71% 1007.5 hPa 0 mm 1.79 m/s, 229° 1127 W/m² -
1788164326 30.56° C 71% 1007.5 hPa 0 mm 1.34 m/s, 207° 398 W/m² -
1788164266 31.11° C 71% 1007.5 hPa 0 mm 0.89 m/s, 251° 353 W/m² -
1788164204 31.11° C 70% 1007.5 hPa 0 mm 2.24 m/s, 225° 1123 W/m² -
1788164144 31.11° C 69% 1007.6 hPa 0 mm 3.13 m/s, 227° 290 W/m² -
1788164082 31.67° C 69% 1007.5 hPa 0 mm 2.68 m/s, 283° 342 W/m² -
1788164022 31.67° C 69% 1007.5 hPa 0 mm 0.45 m/s, 287° 429 W/m² -
1788163960 31.67° C 68% 1007.4 hPa 0 mm 1.79 m/s, 284° 402 W/m² -
1788163899 31.67° C 68% 1007.7 hPa 0 mm 1.79 m/s, 302° 627 W/m² -
1788163838 31.67° C 68% 1007.5 hPa 0 mm 1.79 m/s, 204° 1133 W/m² -
1788163777 31.67° C 68% 1007.5 hPa 0 mm 1.79 m/s, 252° 1110 W/m² -
1788163716 31.67° C 67% 1007.7 hPa 0 mm 2.68 m/s, 258° 597 W/m² -
1788163655 31.11° C 67% 1007.6 hPa 0 mm 1.34 m/s, 285° 515 W/m² -
1788163594 31.11° C 69% 1007.4 hPa 0 mm 0.89 m/s, 148° 1138 W/m² -
1788163534 31.11° C 69% 1007.4 hPa 0 mm 0 m/s 1128 W/m² -
1788163472 31.11° C 69% 1007.6 hPa 0 mm 1.79 m/s, 106° 879 W/m² -
1788163411 31.11° C 69% 1007.4 hPa 0 mm 1.34 m/s, 218° 1131 W/m² -
1788163350 31.11° C 70% 1007.6 hPa 0 mm 2.24 m/s, 285° 1131 W/m² -
1788163289 31.11° C 70% 1007.6 hPa 0 mm 2.24 m/s, 298° 1137 W/m² -
1788163229 31.11° C 70% 1007.6 hPa 0 mm 0.89 m/s, 5° 1132 W/m² -
1788163167 31.11° C 68% 1007.4 hPa 0 mm 1.79 m/s, 309° 364 W/m² -
1788163107 31.11° C 70% 1007.7 hPa 0 mm 1.79 m/s, 265° 420 W/m² -
1788163045 31.11° C 70% 1007.8 hPa 0 mm 3.13 m/s, 231° 1131 W/m² -
1788162998 31.11° C 70% 1007.6 hPa 0 mm 1.34 m/s, 177° 1139 W/m² -
1788162923 31.11° C 69% 1007.7 hPa 0 mm 1.34 m/s, 323° 1101 W/m² -

* Rain latest hour (hover to see other rain measurements)
** Current wind speed in m/s (hover to see current wind gust speed)